ANIK F1R

Last updated on Thu Nov 21 2024 00:02:40 GMT+0000 (Coordinated Universal Time)

1 28868U 05036A 24325.42705806 -.00000073 00000+0 00000+0 0 9993 2 28868 2.8364 83.6862 0001703 134.8412 247.8679 1.00271593 40706
UTC large
Height (km)
Speed (km/s)
/
Latitude / Longitude
Inclination (degrees)
Orbital Period (minutes)
Azimuth
Elevation
Range (km)
Doppler Factor

Next 0 passes for location: London (51.5072 / 0.1276)

Sorry there are no passes over London.